Location: 5810 Zion Rd, Cleves, OH 45002, USA
(39.1922°N, 84.7113°W)
Time: 00:44:37
(UTC-05:00)

Vanguard 3 - Pass Details

Date: 21 December 2019
Orbit: 508 x 3263 km, 33.3° (Epoch: 19 January)

Event Time Altitude Azimuth Distance (km) Brightness Sun altitude
Rises 11:23:30 0° 269° (W) 4,157 10.6 25.1°
Reaches altitude 10° 11:26:28 10° 256° (WSW) 3,538 10.5 25.2°
Maximum altitude 11:33:58 26° 204° (SSW) 3,238 11.2 25.7°
Drops below altitude 10° 11:45:07 10° 156° (SSE) 5,366 13.0 26.2°
Sets 11:51:06 0° 146° (SE) 6,771 12.9 26.5°
